YAOGAN 30 T (45462 NORAD) Tracking and Keplerian Element Data

This shows tracking and keplerian element data for the satellite.

Feedback or suggestion? Click here.




ElementValue
Catalog45462
NameYAOGAN 30 T
Epoch Orbit1540
Epoch Day187.49011248
Epoch Year2020
RAAN315.4532
Inclination35.0003
Eccentricity0.0006757
Argument of Perigee66.676
Mean Anonmoly293.4662
Mean Motion14.90539385
Decay Rate1.6E-07
L11 45462U 20021C 20187.49011248 .00000016 00000-0 43957-5 0 9993
L22 45462 35.0003 315.4532 0006757 66.6760 293.4662 14.90539385 15402

Live tracking and technical data element details for YAOGAN 30 T (NORAD 45462). YAOGAN 30 T can be tracked NOW for your location showing map with azimuth and elevation plus other details from your city location.

Track the satellite on the map from your city or location and see movement details for azimuth, elevation, latitude, longitude, range, height, and movement on the map or in text.







IsCatalogInMostPopularTable: catalog: 45462, numindb: 19
Update: records affected: 1



GetName: 45462 YAOGAN 30 T

Hit Count: updated at: Mon, 06 Jul 2020 06:29:32 GMT